OBJECT AC

基本信息
目录编号:
64554
目录名称:
OBJECT AC
国际标识:
2025-135AC
轨道中心:
EARTH
物体状态:
在轨
发射日期:
2025-06-23 UTC
国别:
(TBD)
轨道信息
数据来源: 国际轨道数据
星历时间: 2026-09-03T22:35:30+0800
半长轴: 6843.491km
偏心率: 0.0001991
轨道倾角: 97.470°
近地点辐角: 54.347°
升交点赤经: 4.380°
平近点角: 305.796°
近地点: 463.991km
远地点: 466.717km
周期: 93.902分钟
每日圈数: 15.335088
详细信息
发射场:
AFWTR
轨道高度:
LEO
数据来源:
AOE Integration Group
参考系:
TEME
时间系统:
UTC
历元类型:
SGP4
2D轨道图
3D轨道图
轨道高度分析图
轨道倾角分析图
轨道综合分析图
查看轨道综合分析图